Volver al catálogo

ASTRA 1N

ActivoComunicacionesGEO
NORAD 37775·PAYLOAD·🇱🇺 Luxembourg

Lanzado Aug 6, 2011 desde Guiana Space Centre

Loading…

TLE

ActualizadoSource: CelesTrak SupGP

Época: Sep 13, 2026, 23:44 UTC

1 37775C 11041A   26256.98958333  .00000210  00000+0  00000+0 0  2562
2 37775   0.0715  16.9611 0004984 132.9292 218.5287  1.00273236    19

Sigue ASTRA 1N en tiempo real con AllMySat

Download on the App Store